Torna al catalogo

STARLINK-5305

AttivoComunicazioniVLEO
NORAD 55314·PAYLOAD·🇺🇸 United States

Lanciato Jan 19, 2023 da Vandenberg Space Force Base

Loading…

Prossimi Passaggi (prossime 24 ore)

TLE

AggiornatoSource: CelesTrak SupGP

Epoca: Sep 14, 2026, 21:26 UTC

1 55314C 23010AX  26257.89354167  .00756270  00000+0  55972-1 0  2571
2 55314  69.9999 247.4307 0003010 268.7777  47.0197 15.02698451    16

Traccia STARLINK-5305 in tempo reale con AllMySat

Download on the App Store